EDT,Max TemperatureF,Mean TemperatureF,Min TemperatureF,Max Dew PointF,MeanDew PointF,Min DewpointF,Max Humidity, Mean Humidity, Min Humidity, Max Sea Level PressureIn, Mean Sea Level PressureIn, Min Sea Level PressureIn, Max VisibilityMiles, Mean VisibilityMiles, Min VisibilityMiles, Max Wind SpeedMPH, Mean Wind SpeedMPH, Max Gust SpeedMPH,PrecipitationIn, CloudCover, Events, WindDirDegrees
2013-10-1,85,78,72,71,70,69,88,75,66,30.09,30.04,30.00,10,10,10,14,6,21,0.10,5,,81
2013-10-2,84,76,67,72,69,64,97,77,60,30.10,30.06,30.03,10,10,9,9,5,,0.00,3,,46
2013-10-3,87,76,66,74,69,65,97,86,56,30.09,30.05,30.01,10,10,6,10,3,,0.00,2,,52
2013-10-4,86,77,68,73,70,66,98,80,61,30.11,30.07,30.04,10,10,9,9,2,,0.00,1,,44
2013-10-5,86,77,68,74,72,67,98,79,62,30.07,30.03,29.99,10,10,9,14,5,,0.00,3,Rain,67
2013-10-6,89,79,70,75,73,70,98,81,58,30.00,29.95,29.90,10,10,6,9,4,,0.00,2,,137
2013-10-7,86,78,72,75,73,71,99,85,63,29.89,29.84,29.80,10,10,9,14,6,29,0.00,3,Rain,207
2013-10-8,86,80,73,75,73,71,95,87,66,29.94,29.87,29.79,10,9,3,15,9,23,0.17,6,Rain,306
2013-10-9,80,74,69,73,70,66,94,83,70,30.04,29.99,29.92,10,10,10,18,13,26,0.02,7,Rain,357
2013-10-10,81,71,61,68,65,60,96,88,61,30.04,30.02,30.00,10,10,10,10,7,,0.00,2,,340
2013-10-11,83,71,60,67,63,59,98,80,50,30.07,30.00,29.97,10,10,2,8,2,,0.00,0,Rain,3
2013-10-12,85,74,64,68,64,60,97,75,46,30.06,30.02,29.99,10,10,9,12,3,20,0.00,3,,351
2013-10-13,84,72,62,68,64,61,97,75,48,30.10,30.05,30.01,10,9,7,10,4,,0.00,1,,349
2013-10-14,83,76,69,70,68,67,94,80,60,30.05,30.01,29.97,10,10,10,13,7,21,0.00,4,,358
2013-10-15,82,74,68,72,69,67,100,90,70,30.00,29.95,29.90,10,9,2,8,6,,0.00,5,,317
2013-10-16,85,76,67,72,68,63,100,86,59,29.99,29.95,29.92,10,5,0,8,3,,0.00,2,,307
2013-10-17,84,75,66,73,69,66,100,88,66,30.00,29.96,29.93,10,6,0,9,3,,0.00,1,Fog,305
2013-10-18,87,76,66,73,70,67,100,84,61,30.02,29.97,29.93,10,9,2,9,3,,0.00,0,,175
2013-10-19,87,78,68,75,73,68,100,82,63,29.98,29.93,29.90,10,9,2,12,5,,0.00,2,,185
2013-10-20,84,79,74,75,74,72,96,84,74,29.99,29.95,29.89,10,10,10,13,6,20,0.00,5,,360
2013-10-21,90,80,71,77,74,71,100,90,59,30.02,29.97,29.93,10,7,1,12,3,16,1.14,4,Rain-Thunderstorm,107
2013-10-22,89,80,71,76,74,71,100,88,59,29.97,29.91,29.82,10,9,1,13,5,22,0.00,3,Rain-Thunderstorm,223
2013-10-23,80,74,66,72,67,52,94,80,55,30.02,29.88,29.81,10,10,6,16,6,22,0.00,4,,313
2013-10-24,75,68,61,61,57,51,91,69,57,30.17,30.10,30.02,10,9,6,13,8,,0.00,3,,345
2013-10-25,76,68,61,62,59,54,94,73,48,30.24,30.20,30.16,10,10,10,13,8,21,0.00,0,,357
2013-10-26,77,66,55,58,55,51,92,68,43,30.22,30.17,30.12,10,10,10,9,6,,0.00,0,,17
2013-10-27,75,64,54,62,56,53,97,79,53,30.15,30.12,30.09,10,10,10,10,4,16,0.00,0,,340
2013-10-28,80,68,56,64,59,54,97,77,50,30.20,30.16,30.12,10,10,10,13,5,18,0.00,0,,355
2013-10-29,82,72,61,68,65,60,96,78,55,30.24,30.20,30.16,10,10,10,13,6,18,0.00,3,Rain,36
2013-10-30,83,74,66,70,67,65,97,82,58,30.25,30.20,30.15,10,9,1,9,3,,0.02,5,Rain,78
2013-10-31,84,74,63,71,67,63,96,75,54,30.16,30.10,30.03,10,10,10,13,5,20,0.00,1,,137